Hourly Data Report for September 25, 2017

All times are specified in Local Standard Time (LST). Add 1 hour to adjust for Daylight Saving Time where and when it is observed.

HALL BEACH A
NUNAVUT

68°46'33.000" N
81°14'33.000" W
9.10 m
2402354
71293
YUX

Download Data

Hourly Data (September 2017)
Hourly Data Report for September 25, 2017
Temp Definition
°C
Dew Point Temp Definition
°C
Rel Hum Definition
%
Wind Dir Definition
10's deg

Wind Spd Definition
km/h
Visibility Definition
km
Stn Press Definition
kPa
Hmdx Definition


Wind Chill Definition


Weather Definition


TIME
00:00 Legend Double Dagger -2.1 -3.8 88 31 24 16.1 101.09   -8 LegendNANA
01:00 Legend Double Dagger -2.3 -3.9 89 31 22 16.1 101.10   -8 LegendNANA
02:00 Legend Double Dagger -1.9 -3.9 86 31 28 16.1 101.09   -9 LegendNANA
03:00 Legend Double Dagger -1.7 -3.9 85 31 32 16.1 101.10   -9 LegendNANA
04:00 Legend Double Dagger -1.2 -4.8 77 32 39 16.1 101.11   -9 LegendNANA
05:00 Legend Double Dagger -1.1 -4.8 76 33 45 16.1 101.09   -9 LegendNANA
06:00 Legend Double Dagger -1.2 -5.2 74 33 43 16.1 101.14   -9 LegendNANA
07:00 Legend Double Dagger -1.4 -4.9 77 34 41 16.1 101.12   -9 LegendNANA
08:00 Legend Double Dagger -1.9 -3.9 86 34 37 14.5 101.15   -10 LegendNANA
09:00 Legend Double Dagger -1.9 -3.9 86 33 37 12.9 101.13   -10 LegendNANA
10:00 Legend Double Dagger -1.9 -4.3 84 33 39 16.1 101.14   -10 LegendNANA
11:00 Legend Double Dagger -1.6 -3.8 85 35 39 16.1 101.13   -9 LegendNANA
12:00 Legend Double Dagger -1.2 -4.6 78 34 37 16.1 101.13   -9 LegendNANA
13:00 Legend Double Dagger -1.4 -5.5 74 33 37 16.1 101.17   -9 LegendNANA
14:00 Legend Double Dagger -1.4 -5.3 75 36 32 16.1 101.16   -9 LegendNANA
15:00 Legend Double Dagger -1.5 -4.9 78 34 24 16.1 101.19   -8 LegendNANA
16:00 Legend Double Dagger -1.9 -4.2 84 33 32 16.1 101.22   -9 LegendNANA
17:00 Legend Double Dagger -1.8 -5.8 74 33 34 16.1 101.24   -9 LegendNANA
18:00 Legend Double Dagger -2.2 -4.9 82 33 24 16.1 101.27   -9 LegendNANA
19:00 Legend Double Dagger -2.2 -5.3 80 33 30 16.1 101.29   -9 LegendNANA
20:00 Legend Double Dagger -2.2 -5.8 76 33 28 16.1 101.32   -9 LegendNANA
21:00 Legend Double Dagger -2.5 -5.1 82 32 24 16.1 101.31   -9 LegendNANA
22:00 Legend Double Dagger -2.5 -5.4 80 33 26 16.1 101.33   -9 LegendNANA
23:00 Legend Double Dagger -2.5 -5.8 78 33 24 16.1 101.33   -9 LegendNANA

Notes on Data Quality.

Legend

  • E = Estimated
  • M = Missing
  • NA = Not Available
  • ‡ = Partner data that is not subject to review by the National Climate Archives
Date modified: